User: anonymous   Login
Location: Caltech
(34.1382°N, 118.1253°W)
Time: 10:44:19
(UTC-07:00)
Language:

NOSS 3-2 (A) - Orbit

View from above orbital plane
View from above orbital plane
View from above satellite
View from above satellite

Ground track
Ground track

The orbit data is extracted from the following two-line orbital elements,

1 28095U 03054A   15207.06508247 0.00000000  00000-0  00000-0 0    06
2 28095  63.4280 278.4610 0244000 358.3610   1.6390 13.41317162    01
Epoch (UTC): 26 July 2015 01:33:43
Eccentricity: 0.0244000
inclination: 63.4280°
perigee height: 922 km
apogee height: 1287 km
right ascension of ascending node: 278.4610°
argument of perigee: 358.3610°
revolutions per day: 13.41317162
mean anomaly at epoch: 1.6390°
orbit number at epoch: 0

The dashed part of the orbit path shows where the satellite is in the earth's shadow,  

DLR